Location: Newark
(54.3386°S, 169.8415°W)
Time: 02:00:47
(UTC+00:00)

Transit 2A Rocket - Pass Details

Date: 29 October 2019
Orbit: 594 x 909 km, 66.7° (Epoch: 18 November)

Event Time Altitude Azimuth Distance (km) Brightness Sun altitude
Rises 09:57:48 0° 223° (SW) 3,543 9.5 -20.8°
Reaches altitude 10° 10:00:18 10° 222° (SW) 2,616 8.7 -20.9°
Maximum altitude 10:06:29 88° 307° (NW) 927 5.3 -21.2°
Enters shadow 10:08:57 39° 38° (NE) 1,347 5.8 -21.3°
Drops below altitude 10° 10:12:34 10° 38° (NE) 2,573 - -21.4°
Sets 10:15:01 0° 38° (NE) 3,482 - -21.5°
